MSR878 RJFF-RKSI

Flight info

Callsign MSR878
Flight time 0h 58m
Altitude 40000
Route DGC G339 BEETL Y208 INVOK Z91 PSN Y782 BITUX Z53 BASEM Y685 GUKDO GUKDO2C
Aircraft B77W/H-SDE1E2E3FGHIJ2J3J4J5M1RWXY/LB1D1

Departure

Time 2026-05-04 21:22
Airport Fukuoka Airport (RJFF)

Arrival

Time 2026-05-04 22:21
Airport Incheon International Airport (RKSI)
Time Latitude Longitude Altitude Speed Heading
2026-05-04 20:55 33.58829 130.44342 35 ft 0 kts 242°
2026-05-04 21:13 33.58832 130.44349 35 ft 3 kts 242°
2026-05-04 21:14 33.58845 130.44377 35 ft 3 kts 240°
2026-05-04 21:14 33.58858 130.44405 34 ft 3 kts 239°
2026-05-04 21:14 33.58872 130.44433 33 ft 3 kts 239°
2026-05-04 21:14 33.58884 130.44458 36 ft 3 kts 248°
2026-05-04 21:15 33.58885 130.44484 34 ft 5 kts 314°
2026-05-04 21:15 33.58864 130.44501 34 ft 3 kts 332°
2026-05-04 21:15 33.58859 130.44505 34 ft 15 kts 331°
2026-05-04 21:18 33.58899 130.44478 36 ft 10 kts 331°
2026-05-04 21:19 33.58946 130.44447 36 ft 12 kts 330°
2026-05-04 21:19 33.59027 130.44394 34 ft 14 kts 331°
2026-05-04 21:19 33.59115 130.44335 35 ft 15 kts 330°
2026-05-04 21:19 33.59204 130.44276 35 ft 15 kts 331°
2026-05-04 21:20 33.59300 130.44212 34 ft 16 kts 331°
2026-05-04 21:20 33.59401 130.44145 35 ft 16 kts 331°
2026-05-04 21:20 33.59501 130.44081 34 ft 17 kts 339°
2026-05-04 21:20 33.59596 130.44149 32 ft 18 kts 57°
2026-05-04 21:21 33.59658 130.44286 30 ft 19 kts 72°
2026-05-04 21:21 33.59586 130.44394 30 ft 8 kts 151°
2026-05-04 21:21 33.59583 130.44396 30 ft 0 kts 151°
2026-05-04 21:21 33.59552 130.44416 30 ft 19 kts 151°
2026-05-04 21:22 33.59189 130.44663 31 ft 104 kts 150°
2026-05-04 21:22 33.58327 130.45251 49 ft 175 kts 150°
2026-05-04 21:22 33.57190 130.46008 559 ft 193 kts 152°
2026-05-04 21:22 33.55996 130.46780 1456 ft 199 kts 152°
2026-05-04 21:23 33.54739 130.47627 2082 ft 220 kts 151°
2026-05-04 21:23 33.53307 130.48595 2507 ft 249 kts 151°
2026-05-04 21:23 33.51773 130.49630 3433 ft 258 kts 150°
2026-05-04 21:23 33.50221 130.50672 4471 ft 260 kts 150°
2026-05-04 21:24 33.48632 130.51735 5525 ft 264 kts 150°
2026-05-04 21:24 33.46992 130.52828 6381 ft 275 kts 151°
2026-05-04 21:24 33.45238 130.53767 7138 ft 279 kts 170°
2026-05-04 21:24 33.43560 130.53672 7861 ft 282 kts 200°
2026-05-04 21:25 33.41939 130.52399 8838 ft 281 kts 230°
2026-05-04 21:25 33.40978 130.50381 9813 ft 281 kts 254°
2026-05-04 21:25 33.40768 130.48048 10578 ft 289 kts 276°
2026-05-04 21:25 33.41338 130.45635 10875 ft 318 kts 297°
2026-05-04 21:26 33.42662 130.43360 11117 ft 349 kts 309°
2026-05-04 21:26 33.44283 130.41117 11604 ft 365 kts 313°
2026-05-04 21:26 33.46355 130.39294 12272 ft 380 kts 336°
2026-05-04 21:26 33.48931 130.38553 13389 ft 386 kts 354°
2026-05-04 21:27 33.51639 130.38520 14483 ft 392 kts 360°
2026-05-04 21:27 33.54398 130.38623 15465 ft 399 kts
2026-05-04 21:27 33.57189 130.38739 16449 ft 405 kts 359°
2026-05-04 21:27 33.60034 130.38830 17437 ft 412 kts 359°
2026-05-04 21:28 33.62918 130.38899 18400 ft 418 kts 358°
2026-05-04 21:28 33.65819 130.38717 19116 ft 420 kts 346°
2026-05-04 21:28 33.68604 130.37668 19915 ft 420 kts 332°
2026-05-04 21:28 33.71093 130.35884 20842 ft 415 kts 319°
2026-05-04 21:29 33.73363 130.33701 21665 ft 419 kts 317°
2026-05-04 21:29 33.75641 130.31480 22502 ft 424 kts 317°
2026-05-04 21:29 33.77922 130.29261 23352 ft 428 kts 317°
2026-05-04 21:29 33.80255 130.27005 24134 ft 432 kts 316°
2026-05-04 21:30 33.82606 130.24744 24843 ft 436 kts 316°
2026-05-04 21:30 33.84989 130.22459 25496 ft 440 kts 316°
2026-05-04 21:30 33.87397 130.20157 26165 ft 444 kts 316°
2026-05-04 21:30 33.89824 130.17839 26841 ft 447 kts 315°
2026-05-04 21:31 33.94729 130.13149 28062 ft 455 kts 315°
2026-05-04 21:31 33.97220 130.10765 28586 ft 459 kts 315°
2026-05-04 21:31 33.99731 130.08361 29137 ft 462 kts 315°
2026-05-04 21:32 34.02258 130.05941 29676 ft 465 kts 315°
2026-05-04 21:32 34.04796 130.03508 30240 ft 466 kts 315°
2026-05-04 21:32 34.07328 130.01080 30779 ft 466 kts 315°
2026-05-04 21:32 34.09859 129.98652 31366 ft 463 kts 315°
2026-05-04 21:33 34.12348 129.96261 31965 ft 461 kts 314°
2026-05-04 21:33 34.14851 129.93853 32553 ft 459 kts 314°
2026-05-04 21:33 34.17344 129.91452 33116 ft 457 kts 313°
2026-05-04 21:33 34.19828 129.89055 33647 ft 456 kts 313°
2026-05-04 21:34 34.22306 129.86664 34173 ft 455 kts 313°
2026-05-04 21:34 34.24776 129.84279 34641 ft 453 kts 313°
2026-05-04 21:34 34.27242 129.81900 35041 ft 453 kts 313°
2026-05-04 21:34 34.29709 129.79540 35471 ft 453 kts 313°
2026-05-04 21:35 34.32185 129.77182 35860 ft 452 kts 313°
2026-05-04 21:35 34.34660 129.74827 36184 ft 454 kts 313°
2026-05-04 21:35 34.37151 129.72451 36148 ft 456 kts 313°
2026-05-04 21:36 34.42110 129.67720 36142 ft 450 kts 313°
2026-05-04 21:36 34.47015 129.63025 36144 ft 448 kts 313°
2026-05-04 21:37 34.51190 129.59018 36137 ft 448 kts 313°
2026-05-04 21:37 34.56112 129.54287 36154 ft 449 kts 313°
2026-05-04 21:38 34.61024 129.49560 36158 ft 451 kts 314°
2026-05-04 21:38 34.65920 129.44843 36142 ft 453 kts 314°
2026-05-04 21:39 34.70860 129.40075 36141 ft 454 kts 314°
2026-05-04 21:39 34.75833 129.35326 36141 ft 456 kts 316°
2026-05-04 21:40 34.81042 129.30867 36141 ft 460 kts 320°
2026-05-04 21:40 34.86691 129.27060 36156 ft 465 kts 324°
2026-05-04 21:41 34.92433 129.23400 36144 ft 465 kts 325°
2026-05-04 21:41 34.98162 129.19721 36140 ft 465 kts 324°
2026-05-04 21:42 35.03845 129.16033 36146 ft 465 kts 324°
2026-05-04 21:42 35.09550 129.12313 36144 ft 464 kts 324°
2026-05-04 21:43 35.15252 129.08586 36153 ft 465 kts 325°
2026-05-04 21:43 35.20950 129.04859 36153 ft 465 kts 325°
2026-05-04 21:44 35.26651 129.01123 36158 ft 465 kts 324°
2026-05-04 21:44 35.32352 128.97383 36157 ft 464 kts 324°
2026-05-04 21:45 35.38009 128.93666 36153 ft 464 kts 324°
2026-05-04 21:45 35.43699 128.89919 36159 ft 465 kts 325°
2026-05-04 21:46 35.49404 128.86157 36166 ft 465 kts 325°
2026-05-04 21:46 35.55106 128.82391 36154 ft 464 kts 325°
2026-05-04 21:47 35.60791 128.78631 36151 ft 464 kts 325°
2026-05-04 21:47 35.66469 128.74868 36175 ft 463 kts 325°
2026-05-04 21:48 35.72146 128.71103 36158 ft 463 kts 325°
2026-05-04 21:48 35.77780 128.67356 36158 ft 463 kts 325°
2026-05-04 21:49 35.83434 128.63591 36162 ft 462 kts 325°
2026-05-04 21:49 35.89094 128.59817 36159 ft 462 kts 325°
2026-05-04 21:50 35.94747 128.56041 36174 ft 462 kts 326°
2026-05-04 21:50 36.00397 128.52261 36155 ft 461 kts 326°
2026-05-04 21:51 36.06043 128.48475 36166 ft 462 kts 326°
2026-05-04 21:51 36.11699 128.44678 36157 ft 462 kts 326°
2026-05-04 21:52 36.17347 128.40880 36168 ft 462 kts 326°
2026-05-04 21:52 36.22993 128.37077 36154 ft 462 kts 326°
2026-05-04 21:53 36.28606 128.33290 36148 ft 462 kts 326°
2026-05-04 21:53 36.34254 128.29474 36155 ft 462 kts 326°
2026-05-04 21:54 36.39906 128.25647 36158 ft 462 kts 326°
2026-05-04 21:54 36.45552 128.21820 36149 ft 462 kts 326°
2026-05-04 21:55 36.51188 128.17992 36159 ft 462 kts 326°
2026-05-04 21:55 36.56838 128.14148 36153 ft 462 kts 326°
2026-05-04 21:56 36.62479 128.10303 36161 ft 462 kts 326°
2026-05-04 21:56 36.68112 128.06458 36154 ft 462 kts 326°
2026-05-04 21:57 36.73098 128.03048 36168 ft 462 kts 326°
2026-05-04 21:57 36.78732 127.99190 36160 ft 462 kts 326°
2026-05-04 21:58 36.83948 127.94682 36170 ft 452 kts 313°
2026-05-04 21:58 36.88113 127.88890 36155 ft 446 kts 301°
2026-05-04 21:59 36.91600 127.82475 36162 ft 447 kts 301°
2026-05-04 21:59 36.95165 127.76099 36163 ft 448 kts 302°
2026-05-04 21:59 36.96970 127.72912 35734 ft 455 kts 302°
2026-05-04 22:00 36.98816 127.69649 34953 ft 460 kts 302°
2026-05-04 22:00 37.00664 127.66378 34092 ft 460 kts 303°
2026-05-04 22:00 37.02511 127.63096 33091 ft 461 kts 303°
2026-05-04 22:00 37.04321 127.59853 32132 ft 462 kts 303°
2026-05-04 22:01 37.06158 127.56544 31139 ft 464 kts 303°
2026-05-04 22:01 37.07995 127.53233 30399 ft 461 kts 303°
2026-05-04 22:01 37.09631 127.50295 29640 ft 458 kts 303°
2026-05-04 22:01 37.11455 127.47024 28809 ft 456 kts 304°
2026-05-04 22:02 37.13263 127.43778 28031 ft 453 kts 304°
2026-05-04 22:02 37.15058 127.40552 27336 ft 449 kts 304°
2026-05-04 22:02 37.16833 127.37357 26687 ft 444 kts 304°
2026-05-04 22:02 37.18590 127.34189 26024 ft 441 kts 304°
2026-05-04 22:03 37.20337 127.31036 25377 ft 437 kts 303°
2026-05-04 22:03 37.22066 127.27910 24730 ft 435 kts 303°
2026-05-04 22:03 37.23785 127.24801 24115 ft 432 kts 303°
2026-05-04 22:03 37.25492 127.21710 23453 ft 429 kts 303°
2026-05-04 22:04 37.27186 127.18640 22807 ft 425 kts 303°
2026-05-04 22:04 37.28842 127.15636 22181 ft 422 kts 303°
2026-05-04 22:04 37.30504 127.12618 21560 ft 418 kts 304°
2026-05-04 22:04 37.32155 127.09617 20958 ft 415 kts 304°
2026-05-04 22:05 37.33791 127.06641 20358 ft 412 kts 304°
2026-05-04 22:05 37.35412 127.03691 19774 ft 409 kts 304°
2026-05-04 22:05 37.36480 127.01745 19394 ft 408 kts 304°
2026-05-04 22:05 37.38091 126.98808 18839 ft 405 kts 304°
2026-05-04 22:06 37.39684 126.95903 18299 ft 402 kts 304°
2026-05-04 22:06 37.41249 126.93050 18156 ft 388 kts 304°
2026-05-04 22:06 37.42153 126.91529 18097 ft 380 kts 308°
2026-05-04 22:06 37.43584 126.89465 18013 ft 370 kts 312°
2026-05-04 22:07 37.45327 126.87150 17929 ft 357 kts 313°
2026-05-04 22:07 37.47018 126.84923 17842 ft 345 kts 313°
2026-05-04 22:07 37.48617 126.82780 17758 ft 334 kts 312°
2026-05-04 22:07 37.50190 126.80635 17686 ft 323 kts 311°
2026-05-04 22:08 37.51662 126.78604 17604 ft 313 kts 311°
2026-05-04 22:08 37.53105 126.76606 17544 ft 303 kts 311°
2026-05-04 22:08 37.54498 126.74674 17465 ft 293 kts 311°
2026-05-04 22:08 37.55845 126.72804 17374 ft 283 kts 311°
2026-05-04 22:09 37.57135 126.71014 17079 ft 269 kts 311°
2026-05-04 22:09 37.58233 126.69488 16584 ft 265 kts 311°
2026-05-04 22:09 37.59386 126.67887 15972 ft 264 kts 310°
2026-05-04 22:09 37.60613 126.66180 15382 ft 261 kts 310°
2026-05-04 22:10 37.61826 126.64494 14790 ft 259 kts 310°
2026-05-04 22:10 37.62977 126.62767 14193 ft 255 kts 299°
2026-05-04 22:10 37.63730 126.60765 13550 ft 251 kts 289°
2026-05-04 22:10 37.64344 126.58742 12949 ft 249 kts 289°
2026-05-04 22:11 37.64924 126.56819 12385 ft 246 kts 289°
2026-05-04 22:11 37.65501 126.54924 11817 ft 244 kts 289°
2026-05-04 22:11 37.66118 126.52943 11264 ft 241 kts 290°
2026-05-04 22:11 37.66736 126.50984 10699 ft 239 kts 290°
2026-05-04 22:12 37.67244 126.49013 10150 ft 235 kts 279°
2026-05-04 22:12 37.67463 126.47019 9567 ft 232 kts 275°
2026-05-04 22:12 37.67607 126.45393 9109 ft 230 kts 275°
2026-05-04 22:12 37.67791 126.43418 8544 ft 228 kts 275°
2026-05-04 22:13 37.67894 126.41436 7962 ft 224 kts 262°
2026-05-04 22:13 37.67791 126.39493 7386 ft 223 kts 276°
2026-05-04 22:13 37.68105 126.37785 6897 ft 222 kts 284°
2026-05-04 22:13 37.68569 126.35945 6364 ft 220 kts 285°
2026-05-04 22:14 37.69042 126.34109 5772 ft 219 kts 282°
2026-05-04 22:14 37.69114 126.32226 5167 ft 214 kts 255°
2026-05-04 22:14 37.68615 126.30467 4624 ft 212 kts 246°
2026-05-04 22:14 37.68071 126.28752 4087 ft 209 kts 247°
2026-05-04 22:15 37.67440 126.27130 3567 ft 204 kts 228°
2026-05-04 22:15 37.66260 126.26285 3370 ft 195 kts 191°
2026-05-04 22:15 37.64943 126.26567 3188 ft 193 kts 159°
2026-05-04 22:15 37.63785 126.27315 3171 ft 182 kts 156°
2026-05-04 22:16 37.62710 126.28032 3137 ft 168 kts 156°
2026-05-04 22:16 37.61737 126.28746 3131 ft 161 kts 153°
2026-05-04 22:16 37.60804 126.29517 3140 ft 160 kts 151°
2026-05-04 22:16 37.59878 126.30319 3133 ft 164 kts 150°
2026-05-04 22:17 37.58930 126.31157 2877 ft 166 kts 150°
2026-05-04 22:17 37.57998 126.31990 2654 ft 162 kts 150°
2026-05-04 22:17 37.57084 126.32806 2437 ft 159 kts 150°
2026-05-04 22:17 37.56209 126.33590 2221 ft 151 kts 151°
2026-05-04 22:18 37.55352 126.34354 2055 ft 150 kts 150°
2026-05-04 22:18 37.54585 126.35039 1882 ft 145 kts 150°
2026-05-04 22:18 37.53903 126.35647 1698 ft 146 kts 150°
2026-05-04 22:18 37.53077 126.36383 1495 ft 145 kts 150°
2026-05-04 22:19 37.52255 126.37117 1303 ft 144 kts 149°
2026-05-04 22:19 37.51445 126.37840 1098 ft 142 kts 148°
2026-05-04 22:19 37.50655 126.38545 879 ft 139 kts 147°
2026-05-04 22:19 37.49873 126.39242 689 ft 137 kts 146°
2026-05-04 22:20 37.49105 126.39928 512 ft 136 kts 145°
2026-05-04 22:20 37.48339 126.40610 330 ft 134 kts 144°
2026-05-04 22:20 37.47584 126.41295 174 ft 134 kts 145°
2026-05-04 22:20 37.46842 126.41949 40 ft 120 kts 144°
2026-05-04 22:21 37.46254 126.42474 38 ft 83 kts 145°
2026-05-04 22:21 37.45909 126.42780 38 ft 38 kts 144°
2026-05-04 22:21 37.45726 126.42947 38 ft 31 kts 139°
2026-05-04 22:21 37.45605 126.43159 38 ft 30 kts 116°
2026-05-04 22:22 37.45507 126.43390 37 ft 30 kts 132°
2026-05-04 22:22 37.45407 126.43494 38 ft 6 kts 143°
2026-05-04 22:22 37.45381 126.43516 38 ft 3 kts 146°
2026-05-04 22:22 37.45359 126.43535 38 ft 4 kts 146°
2026-05-04 22:23 37.45349 126.43544 38 ft 1 kts 146°
2026-05-04 22:23 37.45334 126.43557 38 ft 6 kts 144°
2026-05-04 22:23 37.45305 126.43606 38 ft 9 kts 102°
2026-05-04 22:23 37.45286 126.43746 38 ft 23 kts 130°
2026-05-04 22:24 37.45157 126.43868 38 ft 23 kts 144°
2026-05-04 22:24 37.45048 126.43979 38 ft 14 kts 110°
2026-05-04 22:24 37.45081 126.44094 38 ft 15 kts 59°
2026-05-04 22:24 37.45072 126.44215 37 ft 15 kts 101°
2026-05-04 22:25 37.45109 126.44333 37 ft 15 kts 54°
2026-05-04 22:25 37.45138 126.44385 37 ft 8 kts 55°
2026-05-04 22:25 37.45171 126.44445 37 ft 9 kts 55°
2026-05-04 22:25 37.45211 126.44514 37 ft 10 kts 54°
2026-05-04 22:26 37.45234 126.44598 37 ft 11 kts 86°
2026-05-04 22:26 37.45195 126.44665 37 ft 11 kts 170°
2026-05-04 22:26 37.45139 126.44650 37 ft 7 kts 200°
2026-05-04 22:26 37.45116 126.44639 37 ft 0 kts 201°
2026-05-04 22:27 37.45114 126.44638 37 ft 0 kts 201°